Time,TemperatureF,DewpointF,PressureIn,WindDirection,WindDirectionDegrees,WindSpeedMPH,WindSpeedGustMPH,Humidity,HourlyPrecipIn,Conditions,Clouds,dailyrainin,SolarRadiationWatts/m^2,SoftwareType,DateUTC
2013-01-01 00:02:00,34.7,32.0,30.28,West,265,0.0,2.0,89,0.00,,,0.00,0,weatherlink.com 1.10,2013-01-01 08:02:00,
2013-01-01 00:17:00,34.7,32.0,30.27,West,265,1.0,3.0,89,0.00,,,0.00,0,weatherlink.com 1.10,2013-01-01 08:17:00,
2013-01-01 00:32:00,34.1,31.0,30.26,West,265,1.0,3.0,89,0.00,,,0.00,0,weatherlink.com 1.10,2013-01-01 08:32:00,
2013-01-01 00:47:00,34.8,32.0,30.26,West,265,0.0,1.0,89,0.00,,,0.00,0,weatherlink.com 1.10,2013-01-01 08:47:00,
2013-01-01 01:02:00,34.4,31.0,30.28,West,265,2.0,3.0,88,0.00,,,0.00,0,weatherlink.com 1.10,2013-01-01 09:02:00,
2013-01-01 01:17:00,34.6,32.0,30.28,West,265,0.0,0.0,89,0.00,,,0.00,0,weatherlink.com 1.10,2013-01-01 09:17:00,
2013-01-01 01:32:00,34.4,31.0,30.28,West,265,1.0,1.0,88,0.00,,,0.00,0,weatherlink.com 1.10,2013-01-01 09:32:00,
2013-01-01 01:47:00,33.8,31.0,30.28,West,265,0.0,2.0,89,0.00,,,0.00,0,weatherlink.com 1.10,2013-01-01 09:47:00,
2013-01-01 02:02:00,33.6,31.0,30.27,West,265,1.0,2.0,89,0.00,,,0.00,0,weatherlink.com 1.10,2013-01-01 10:02:00,
2013-01-01 02:17:00,33.4,31.0,30.27,West,265,1.0,2.0,90,0.00,,,0.00,0,weatherlink.com 1.10,2013-01-01 10:17:00,
2013-01-01 02:32:00,34.2,32.0,30.27,West,265,0.0,3.0,90,0.00,,,0.00,0,weatherlink.com 1.10,2013-01-01 10:32:00,
2013-01-01 02:47:00,34.2,31.0,30.28,West,265,0.0,0.0,89,0.00,,,0.00,0,weatherlink.com 1.10,2013-01-01 10:47:00,
2013-01-01 03:02:00,33.9,31.0,30.29,West,265,0.0,0.0,90,0.00,,,0.00,0,weatherlink.com 1.10,2013-01-01 11:02:00,
2013-01-01 03:17:00,34.3,32.0,30.29,West,265,0.0,2.0,91,0.00,,,0.00,0,weatherlink.com 1.10,2013-01-01 11:17:00,
2013-01-01 03:32:00,34.5,32.0,30.29,West,265,0.0,3.0,90,0.00,,,0.00,0,weatherlink.com 1.10,2013-01-01 11:32:00,
2013-01-01 03:47:00,35.5,33.0,30.29,West,265,0.0,0.0,89,0.00,,,0.00,0,weatherlink.com 1.10,2013-01-01 11:47:00,
2013-01-01 04:03:00,35.4,32.0,30.29,West,265,0.0,1.0,88,0.00,,,0.00,0,weatherlink.com 1.10,2013-01-01 12:03:00,
2013-01-01 04:18:00,35.9,33.0,30.29,West,265,2.0,3.0,88,0.00,,,0.00,0,weatherlink.com 1.10,2013-01-01 12:18:00,
2013-01-01 04:33:00,35.6,32.0,30.30,NE,34,2.0,7.0,88,0.00,,,0.00,0,weatherlink.com 1.10,2013-01-01 12:33:00,
2013-01-01 04:48:00,36.9,33.0,30.30,NNE,17,1.0,3.0,87,0.00,,,0.00,0,weatherlink.com 1.10,2013-01-01 12:48:00,
2013-01-01 05:03:00,37.3,34.0,30.29,NNE,31,4.0,6.0,86,0.00,,,0.00,0,weatherlink.com 1.10,2013-01-01 13:03:00,
2013-01-01 05:18:00,37.9,34.0,30.29,NE,49,2.0,6.0,85,0.00,,,0.00,0,weatherlink.com 1.10,2013-01-01 13:18:00,
2013-01-01 05:33:00,38.3,34.0,30.29,NNE,32,0.0,4.0,84,0.00,,,0.00,0,weatherlink.com 1.10,2013-01-01 13:33:00,
2013-01-01 05:48:00,38.1,34.0,30.29,NNE,32,0.0,3.0,84,0.00,,,0.00,0,weatherlink.com 1.10,2013-01-01 13:48:00,
2013-01-01 06:03:00,37.6,34.0,30.30,NNE,31,2.0,3.0,85,0.00,,,0.00,0,weatherlink.com 1.10,2013-01-01 14:03:00,
2013-01-01 06:18:00,37.0,33.0,30.30,NNE,15,1.0,5.0,86,0.00,,,0.00,0,weatherlink.com 1.10,2013-01-01 14:18:00,
2013-01-01 06:33:00,36.7,33.0,30.30,North,360,0.0,4.0,87,0.00,,,0.00,0,weatherlink.com 1.10,2013-01-01 14:33:00,
2013-01-01 06:48:00,36.4,33.0,30.29,NNE,14,2.0,4.0,88,0.00,,,0.00,0,weatherlink.com 1.10,2013-01-01 14:48:00,
2013-01-01 07:03:00,36.2,33.0,30.29,NNE,15,2.0,2.0,88,0.00,,,0.00,0,weatherlink.com 1.10,2013-01-01 15:03:00,
2013-01-01 07:18:00,35.8,33.0,30.29,NNE,14,2.0,3.0,89,0.00,,,0.00,0,weatherlink.com 1.10,2013-01-01 15:18:00,
2013-01-01 07:33:00,35.9,33.0,30.29,NNE,32,1.0,4.0,89,0.00,,,0.00,11,weatherlink.com 1.10,2013-01-01 15:33:00,
2013-01-01 07:48:00,36.0,33.0,30.29,NNE,28,4.0,4.0,90,0.00,,,0.00,46,weatherlink.com 1.10,2013-01-01 15:48:00,
2013-01-01 08:03:00,36.4,34.0,30.30,NNE,23,1.0,5.0,90,0.00,,,0.00,77,weatherlink.com 1.10,2013-01-01 16:03:00,
2013-01-01 08:18:00,37.0,34.0,30.30,NNE,32,2.0,6.0,90,0.00,,,0.00,113,weatherlink.com 1.10,2013-01-01 16:18:00,
2013-01-01 08:33:00,38.0,35.0,30.31,NNE,29,3.0,6.0,89,0.00,,,0.00,153,weatherlink.com 1.10,2013-01-01 16:33:00,
2013-01-01 08:48:00,39.8,36.0,30.31,NNE,15,1.0,3.0,86,0.00,,,0.00,216,weatherlink.com 1.10,2013-01-01 16:48:00,
2013-01-01 09:03:00,40.5,36.0,30.31,NE,43,0.0,4.0,85,0.00,,,0.00,260,weatherlink.com 1.10,2013-01-01 17:03:00,
2013-01-01 09:18:00,41.1,36.0,30.31,NNE,17,1.0,5.0,83,0.00,,,0.00,301,weatherlink.com 1.10,2013-01-01 17:18:00,
2013-01-01 09:33:00,42.2,37.0,30.32,NNE,17,2.0,4.0,81,0.00,,,0.00,339,weatherlink.com 1.10,2013-01-01 17:33:00,
2013-01-01 09:48:00,43.0,37.0,30.32,NNW,346,2.0,4.0,78,0.00,,,0.00,374,weatherlink.com 1.10,2013-01-01 17:48:00,
2013-01-01 10:03:00,43.9,36.0,30.32,NW,324,1.0,4.0,75,0.00,,,0.00,396,weatherlink.com 1.10,2013-01-01 18:03:00,
2013-01-01 10:18:00,45.3,37.0,30.31,NNW,328,2.0,4.0,73,0.00,,,0.00,429,weatherlink.com 1.10,2013-01-01 18:18:00,
2013-01-01 10:34:00,46.2,37.0,30.31,NNW,328,2.0,3.0,71,0.00,,,0.00,457,weatherlink.com 1.10,2013-01-01 18:34:00,
2013-01-01 10:49:00,46.3,38.0,30.30,South,179,2.0,6.0,72,0.00,,,0.00,483,weatherlink.com 1.10,2013-01-01 18:49:00,
2013-01-01 11:04:00,46.5,38.0,30.30,South,182,0.0,6.0,71,0.00,,,0.00,494,weatherlink.com 1.10,2013-01-01 19:04:00,
2013-01-01 11:19:00,48.2,38.0,30.30,SE,142,1.0,3.0,67,0.00,,,0.00,497,weatherlink.com 1.10,2013-01-01 19:19:00,
2013-01-01 11:34:00,48.1,36.0,30.29,NNE,25,2.0,10.0,64,0.00,,,0.00,485,weatherlink.com 1.10,2013-01-01 19:34:00,
2013-01-01 11:49:00,49.1,38.0,30.29,NNW,336,6.0,8.0,65,0.00,,,0.00,526,weatherlink.com 1.10,2013-01-01 19:49:00,
2013-01-01 12:04:00,50.0,37.0,30.28,ENE,66,2.0,5.0,62,0.00,,,0.00,508,weatherlink.com 1.10,2013-01-01 20:04:00,
2013-01-01 12:19:00,50.4,37.0,30.27,ENE,60,2.0,8.0,60,0.00,,,0.00,492,weatherlink.com 1.10,2013-01-01 20:19:00,
2013-01-01 12:34:00,50.3,37.0,30.27,NE,45,5.0,9.0,61,0.00,,,0.00,490,weatherlink.com 1.10,2013-01-01 20:34:00,
2013-01-01 12:49:00,49.9,36.0,30.26,NE,49,3.0,14.0,60,0.00,,,0.00,482,weatherlink.com 1.10,2013-01-01 20:49:00,
2013-01-01 13:04:00,50.3,36.0,30.26,ENE,64,5.0,15.0,59,0.00,,,0.00,464,weatherlink.com 1.10,2013-01-01 21:04:00,
2013-01-01 13:19:00,50.3,36.0,30.27,ENE,63,16.0,16.0,58,0.00,,,0.00,448,weatherlink.com 1.10,2013-01-01 21:19:00,
2013-01-01 13:34:00,50.6,36.0,30.26,East,97,8.0,14.0,57,0.00,,,0.00,420,weatherlink.com 1.10,2013-01-01 21:34:00,
2013-01-01 13:49:00,50.5,35.0,30.26,ENE,65,10.0,15.0,56,0.00,,,0.00,401,weatherlink.com 1.10,2013-01-01 21:49:00,
2013-01-01 14:04:00,50.8,35.0,30.26,ESE,111,7.0,13.0,56,0.00,,,0.00,362,weatherlink.com 1.10,2013-01-01 22:04:00,
2013-01-01 14:19:00,51.0,35.0,30.26,East,97,8.0,13.0,55,0.00,,,0.00,339,weatherlink.com 1.10,2013-01-01 22:19:00,
2013-01-01 14:34:00,51.2,35.0,30.25,NE,53,4.0,11.0,55,0.00,,,0.00,301,weatherlink.com 1.10,2013-01-01 22:34:00,
2013-01-01 14:49:00,51.3,36.0,30.25,ENE,63,5.0,11.0,56,0.00,,,0.00,264,weatherlink.com 1.10,2013-01-01 22:49:00,
2013-01-01 15:04:00,51.3,35.0,30.26,ENE,64,5.0,11.0,55,0.00,,,0.00,221,weatherlink.com 1.10,2013-01-01 23:04:00,
2013-01-01 15:19:00,51.0,35.0,30.26,ENE,73,3.0,9.0,55,0.00,,,0.00,162,weatherlink.com 1.10,2013-01-01 23:19:00,
2013-01-01 15:34:00,50.8,35.0,30.26,North,5,3.0,9.0,56,0.00,,,0.00,114,weatherlink.com 1.10,2013-01-01 23:34:00,
2013-01-01 15:49:00,50.2,35.0,30.26,NE,53,7.0,10.0,57,0.00,,,0.00,76,weatherlink.com 1.10,2013-01-01 23:49:00,
2013-01-01 16:04:00,49.6,35.0,30.26,ENE,78,4.0,10.0,58,0.00,,,0.00,39,weatherlink.com 1.10,2013-01-02 00:04:00,
2013-01-01 16:19:00,49.0,35.0,30.26,ENE,67,4.0,12.0,60,0.00,,,0.00,25,weatherlink.com 1.10,2013-01-02 00:19:00,
2013-01-01 16:34:00,48.5,35.0,30.25,ENE,67,0.0,12.0,60,0.00,,,0.00,18,weatherlink.com 1.10,2013-01-02 00:34:00,
2013-01-01 16:49:00,47.7,34.0,30.25,East,92,2.0,7.0,59,0.00,,,0.00,11,weatherlink.com 1.10,2013-01-02 00:49:00,
2013-01-01 17:04:00,47.1,33.0,30.25,East,80,3.0,5.0,59,0.00,,,0.00,0,weatherlink.com 1.10,2013-01-02 01:04:00,
2013-01-01 17:19:00,46.2,34.0,30.25,ENE,68,0.0,2.0,62,0.00,,,0.00,0,weatherlink.com 1.10,2013-01-02 01:19:00,
2013-01-01 17:34:00,45.2,34.0,30.25,ENE,68,0.0,1.0,64,0.00,,,0.00,0,weatherlink.com 1.10,2013-01-02 01:34:00,
2013-01-01 17:49:00,44.3,33.0,30.25,South,171,1.0,3.0,65,0.00,,,0.00,0,weatherlink.com 1.10,2013-01-02 01:49:00,
2013-01-01 18:04:00,42.6,34.0,30.25,South,171,1.0,4.0,72,0.00,,,0.00,0,weatherlink.com 1.10,2013-01-02 02:04:00,
2013-01-01 18:19:00,41.8,33.0,30.26,South,171,1.0,3.0,72,0.00,,,0.00,0,weatherlink.com 1.10,2013-01-02 02:19:00,
2013-01-01 18:34:00,41.9,34.0,30.26,SSE,165,0.0,4.0,74,0.00,,,0.00,0,weatherlink.com 1.10,2013-01-02 02:34:00,
2013-01-01 18:49:00,41.9,35.0,30.27,SSE,162,0.0,4.0,75,0.00,,,0.00,0,weatherlink.com 1.10,2013-01-02 02:49:00,
2013-01-01 19:04:00,40.7,34.0,30.27,SSE,162,0.0,0.0,76,0.00,,,0.00,0,weatherlink.com 1.10,2013-01-02 03:04:00,
2013-01-01 19:19:00,39.7,34.0,30.27,SSE,162,0.0,1.0,79,0.00,,,0.00,0,weatherlink.com 1.10,2013-01-02 03:19:00,
2013-01-01 19:34:00,39.3,33.0,30.28,East,98,0.0,2.0,79,0.00,,,0.00,0,weatherlink.com 1.10,2013-01-02 03:34:00,
2013-01-01 19:49:00,39.1,33.0,30.28,East,98,0.0,0.0,79,0.00,,,0.00,0,weatherlink.com 1.10,2013-01-02 03:49:00,
2013-01-01 20:04:00,38.0,33.0,30.28,East,98,1.0,3.0,82,0.00,,,0.00,0,weatherlink.com 1.10,2013-01-02 04:04:00,
2013-01-01 20:19:00,37.2,33.0,30.29,East,100,0.0,3.0,84,0.00,,,0.00,0,weatherlink.com 1.10,2013-01-02 04:19:00,
2013-01-01 20:34:00,37.5,33.0,30.28,East,100,0.0,0.0,85,0.00,,,0.00,0,weatherlink.com 1.10,2013-01-02 04:34:00,
2013-01-01 20:49:00,36.8,33.0,30.28,East,100,0.0,2.0,85,0.00,,,0.00,0,weatherlink.com 1.10,2013-01-02 04:49:00,
2013-01-01 21:04:00,36.7,33.0,30.29,East,100,0.0,0.0,87,0.00,,,0.00,0,weatherlink.com 1.10,2013-01-02 05:04:00,
2013-01-01 21:19:00,37.0,34.0,30.29,East,100,0.0,0.0,87,0.00,,,0.00,0,weatherlink.com 1.10,2013-01-02 05:19:00,
2013-01-01 21:34:00,36.1,33.0,30.29,East,100,0.0,0.0,88,0.00,,,0.00,0,weatherlink.com 1.10,2013-01-02 05:34:00,
2013-01-01 21:49:00,36.1,33.0,30.29,East,100,0.0,1.0,87,0.00,,,0.00,0,weatherlink.com 1.10,2013-01-02 05:49:00,
2013-01-01 22:04:00,35.7,33.0,30.29,East,100,0.0,1.0,90,0.00,,,0.00,0,weatherlink.com 1.10,2013-01-02 06:04:00,
2013-01-01 22:19:00,35.0,32.0,30.29,East,100,0.0,2.0,90,0.00,,,0.00,0,weatherlink.com 1.10,2013-01-02 06:19:00,
2013-01-01 22:34:00,35.2,32.0,30.29,East,100,0.0,1.0,88,0.00,,,0.00,0,weatherlink.com 1.10,2013-01-02 06:34:00,
2013-01-01 22:49:00,34.2,31.0,30.29,East,100,2.0,2.0,89,0.00,,,0.00,0,weatherlink.com 1.10,2013-01-02 06:49:00,
2013-01-01 23:04:00,35.0,32.0,30.29,East,100,0.0,1.0,90,0.00,,,0.00,0,weatherlink.com 1.10,2013-01-02 07:04:00,
2013-01-01 23:19:00,34.3,32.0,30.29,East,100,0.0,0.0,90,0.00,,,0.00,0,weatherlink.com 1.10,2013-01-02 07:19:00,
2013-01-01 23:34:00,34.5,32.0,30.29,East,100,0.0,1.0,90,0.00,,,0.00,0,weatherlink.com 1.10,2013-01-02 07:34:00,
2013-01-01 23:49:00,33.9,32.0,30.29,East,100,0.0,1.0,91,0.00,,,0.00,0,weatherlink.com 1.10,2013-01-02 07:49:00,